DW1779 Weather Reports


Display with metric or nautical units.
time (UTC)temp
F
wind
direction
speed
MPH
gust
MPH
rain 1hr
in
rain 24hr
in
rain mn
in
humidity
%
barometer
mb
20260906222037 91 100 3.0 7.0 0.00 0.00 0.00 55 1014.2
20260906221538 91 106 3.0 9.0 0.00 0.00 0.00 55 1014.2
20260906221036 92 187 4.0 10.0 0.00 0.00 0.00 54 1014.2
20260906220636 92 43 2.0 10.0 0.00 0.00 0.00 54 1014.2
20260906220050 92 58 2.0 12.0 0.00 0.00 0.00 55 1014.3
20260906215553 92 126 3.0 12.0 0.00 0.00 0.00 53 1014.3
20260906215050 92 20 3.0 10.0 0.00 0.00 0.00 52 1014.3
20260906214553 92 298 3.0 10.0 0.00 0.00 0.00 51 1014.4
20260906214050 93 32 3.0 11.0 0.00 0.00 0.00 55 1014.4
20260906213553 93 80 4.0 11.0 0.00 0.00 0.00 51 1014.2
20260906213049 93 102 2.0 14.0 0.00 0.00 0.00 53 1014.3
20260906212548 93 360 2.0 9.0 0.00 0.00 0.00 53 1014.4
20260906212052 93 70 4.0 10.0 0.00 0.00 0.00 52 1014.5
20260906211550 93 29 3.0 10.0 0.00 0.00 0.00 51 1014.6
20260906211047 93 355 4.0 10.0 0.00 0.00 0.00 54 1014.5
20260906210647 93 126 3.0 9.0 0.00 0.00 0.00 54 1014.5
20260906210056 94 86 4.0 9.0 0.00 0.00 0.00 56 1014.6
20260906205545 93 261 1.0 10.0 0.00 0.00 0.00 54 1014.6
20260906205045 93 138 5.0 12.0 0.00 0.00 0.00 52 1014.7
20260906204555 93 163 3.0 9.0 0.00 0.00 0.00 55 1014.8
20260906204048 94 38 3.0 11.0 0.00 0.00 0.00 54 1014.8
20260906203544 94 57 3.0 12.0 0.00 0.00 0.00 53 1014.8
20260906203043 93 94 5.0 12.0 0.00 0.00 0.00 52 1014.8
20260906202542 93 24 5.0 12.0 0.00 0.00 0.00 52 1014.9
20260906202042 94 17 4.0 12.0 0.00 0.00 0.00 52 1014.9
20260906201548 94 5 2.0 9.0 0.00 0.00 0.00 54 1014.9
20260906201041 94 137 4.0 11.0 0.00 0.00 0.00 53 1014.9
20260906200044 94 93 4.0 9.0 0.00 0.00 0.00 55 1015.0
20260906195542 95 79 1.0 6.0 0.00 0.00 0.00 56 1015.0
20260906195045 94 84 3.0 11.0 0.00 0.00 0.00 56 1015.1
20260906194553 94 360 4.0 13.0 0.00 0.00 0.00 55 1015.0
20260906194040 95 47 5.0 13.0 0.00 0.00 0.00 57 1015.1
20260906193539 94 99 5.0 13.0 0.00 0.00 0.00 56 1015.3
20260906193039 95 5 6.0 13.0 0.00 0.00 0.00 55 1015.4
20260906192537 94 88 3.0 14.0 0.00 0.00 0.00 58 1015.4
20260906192040 94 355 6.0 14.0 0.00 0.00 0.00 58 1015.5
20260906191535 94 133 7.0 14.0 0.00 0.00 0.00 57 1015.6
20260906191037 94 49 6.0 13.0 0.00 0.00 0.00 59 1015.6
20260906190636 93 82 6.0 12.0 0.00 0.00 0.00 59 1015.5
20260906190056 92 49 2.0 11.0 0.00 0.00 0.00 60 1015.6
20260906185556 94 78 6.0 11.0 0.00 0.00 0.00 62 1015.7
20260906185056 92 30 3.0 11.0 0.00 0.00 0.00 62 1015.6
20260906184557 93 165 4.0 11.0 0.00 0.00 0.00 61 1015.9
20260906184056 95 360 4.0 12.0 0.00 0.00 0.00 59 1015.8
20260906183555 94 248 4.0 12.0 0.00 0.00 0.00 62 1015.7
20260906183103 94 120 2.0 9.0 0.00 0.00 0.00 62 1015.8
20260906182553 92 5 2.0 10.0 0.00 0.00 0.00 63 1015.8
20260906182056 93 338 5.0 12.0 0.00 0.00 0.00 63 1016.0
20260906181557 94 77 4.0 14.0 0.00 0.00 0.00 61 1015.9
20260906181052 93 173 6.0 14.0 0.00 0.00 0.00 62 1016.0
20260906180652 93 128 4.0 16.0 0.00 0.00 0.00 62 1016.1
20260906180119 94 90 4.0 16.0 0.00 0.00 0.00 62 1016.1
20260906175558 93 254 3.0 12.0 0.00 0.00 0.00 62 1016.2
20260906175058 92 159 4.0 11.0 0.00 0.00 0.00 63 1016.3
20260906174617 93 96 4.0 10.0 0.00 0.00 0.00 63 1016.4
20260906174054 93 331 2.0 10.0 0.00 0.00 0.00 65 1016.5
20260906173554 93 34 3.0 12.0 0.00 0.00 0.00 63 1016.6
20260906173053 92 88 5.0 12.0 0.00 0.00 0.00 62 1016.6
20260906172556 92 157 3.0 11.0 0.00 0.00 0.00 64 1016.8
20260906172051 92 95 2.0 13.0 0.00 0.00 0.00 64 1016.8
20260906171608 93 33 3.0 13.0 0.00 0.00 0.00 63 1016.7
20260906171050 93 46 2.0 10.0 0.00 0.00 0.00 64 1016.7
20260906170648 92 123 4.0 10.0 0.00 0.00 0.00 65 1016.8
20260906170105 93 34 1.0 8.0 0.00 0.00 0.00 65 1016.9
20260906165557 92 13 1.0 8.0 0.00 0.00 0.00 67 1016.9
20260906165055 91 98 3.0 9.0 0.00 0.00 0.00 66 1016.9
20260906164554 91 80 4.0 12.0 0.00 0.00 0.00 66 1016.9
20260906164053 90 84 4.0 12.0 0.00 0.00 0.00 66 1017.0
20260906163553 91 71 3.0 9.0 0.00 0.00 0.00 67 1017.0
20260906163051 91 61 2.0 8.0 0.00 0.00 0.00 66 1017.1
20260906162551 90 117 2.0 10.0 0.00 0.00 0.00 69 1017.0
20260906162048 90 27 4.0 10.0 0.00 0.00 0.00 70 1017.1
20260906161611 89 132 3.0 9.0 0.00 0.00 0.00 70 1017.1
20260906161045 90 78 3.0 9.0 0.00 0.00 0.00 71 1017.3
20260906160644 89 210 3.0 9.0 0.00 0.00 0.00 71 1017.4
20260906160058 89 99 3.0 9.0 0.00 0.00 0.00 71 1017.3
20260906155600 89 116 3.0 9.0 0.00 0.00 0.00 72 1017.4
20260906155055 88 54 3.0 10.0 0.00 0.00 0.00 73 1017.3
20260906154558 89 39 3.0 9.0 0.00 0.00 0.00 73 1017.3
20260906154053 88 13 3.0 10.0 0.00 0.00 0.00 73 1017.4
20260906153552 88 23 2.0 10.0 0.00 0.00 0.00 74 1017.3
20260906153108 88 182 2.0 6.0 0.00 0.00 0.00 73 1017.3
20260906152549 87 22 2.0 6.0 0.00 0.00 0.00 75 1017.2
20260906152049 87 156 1.0 9.0 0.00 0.00 0.00 75 1017.2
20260906151547 86 135 2.0 9.0 0.00 0.00 0.00 76 1017.2
20260906151045 86 128 2.0 8.0 0.00 0.00 0.00 76 1017.1
20260906150643 86 69 2.0 9.0 0.00 0.00 0.00 78 1017.0
20260906150106 85 312 3.0 9.0 0.00 0.00 0.00 79 1017.1
20260906145556 85 54 3.0 9.0 0.00 0.00 0.00 79 1017.1
20260906145053 84 278 2.0 6.0 0.00 0.00 0.00 80 1017.0
20260906144552 84 48 2.0 8.0 0.00 0.00 0.00 81 1017.0
20260906144049 83 97 2.0 8.0 0.00 0.00 0.00 81 1017.0
20260906143549 83 42 3.0 8.0 0.00 0.00 0.00 82 1017.0
20260906143047 83 55 2.0 6.0 0.00 0.00 0.00 83 1017.0
20260906142547 82 71 1.0 5.0 0.00 0.00 0.00 83 1017.0
20260906142045 81 13 2.0 8.0 0.00 0.00 0.00 84 1016.9
20260906141558 81 109 2.0 8.0 0.00 0.00 0.00 84 1016.9
20260906141042 81 80 2.0 8.0 0.00 0.00 0.00 85 1017.0
20260906140641 80 126 1.0 8.0 0.00 0.00 0.00 87 1017.0
20260906140055 80 56 2.0 6.0 0.00 0.00 0.00 87 1017.0
20260906135554 79 122 2.0 5.0 0.00 0.00 0.00 88 1016.9
20260906135052 78 73 1.0 5.0 0.00 0.00 0.00 89 1016.9
20260906134551 78 100 0.0 5.0 0.00 0.00 0.00 90 1016.9
20260906134049 77 57 0.0 4.0 0.00 0.00 0.00 91 1017.0
20260906133547 77 114 1.0 6.0 0.00 0.00 0.00 92 1016.9
20260906133055 76 68 2.0 6.0 0.00 0.00 0.00 94 1016.8
20260906132545 76 100 1.0 6.0 0.00 0.00 0.00 94 1016.9
20260906132043 75 86 2.0 6.0 0.00 0.00 0.00 96 1016.9
20260906131558 74 32 2.0 4.0 0.00 0.00 0.00 96 1016.9
20260906131041 74 192 0.0 4.0 0.00 0.00 0.00 96 1016.7
20260906130637 74 111 0.0 4.0 0.00 0.00 0.00 97 1016.7
20260906130054 73 115 0.0 4.0 0.00 0.00 0.00 98 1016.6
20260906125545 72 128 0.0 3.0 0.00 0.00 0.00 98 1016.5
20260906125042 71 182 0.0 3.0 0.00 0.00 0.00 98 1016.5
20260906124542 70 146 0.0 2.0 0.00 0.00 0.00 98 1016.5
20260906124042 69 102 0.0 2.0 0.00 0.00 0.00 97 1016.5
20260906123541 69 85 0.0 2.0 0.00 0.00 0.00 97 1016.5
20260906123041 69 86 0.0 2.0 0.00 0.00 0.00 97 1016.6
20260906122540 69 173 0.0 2.0 0.00 0.00 0.00 98 1016.6
20260906122039 69 174 0.0 0.0 0.00 0.00 0.00 97 1016.5
20260906121541 68 13 0.0 0.0 0.00 0.00 0.00 97 1016.4
20260906121037 68 13 0.0 0.0 0.00 0.00 0.00 97 1016.5
20260906120636 68 13 0.0 0.0 0.00 0.00 0.00 97 1016.5
20260906115554 68 13 0.0 0.0 0.00 0.00 0.00 97 1016.1
20260906115057 68 13 0.0 0.0 0.00 0.00 0.00 97 1016.2
20260906114556 69 13 0.0 0.0 0.00 0.00 0.00 97 1016.2
20260906114053 69 13 0.0 0.0 0.00 0.00 0.00 97 1016.1
20260906113553 68 13 0.0 0.0 0.00 0.00 0.00 97 1016.0
20260906113053 68 13 0.0 0.0 0.00 0.00 0.00 97 1016.0
20260906112552 69 13 0.0 0.0 0.00 0.00 0.00 97 1016.0
20260906112052 69 13 0.0 0.0 0.00 0.00 0.00 97 1016.0
20260906111551 69 13 0.0 0.0 0.00 0.00 0.00 97 1016.0
20260906111050 69 13 0.0 1.0 0.00 0.00 0.00 97 1016.0
20260906110651 69 13 0.0 2.0 0.00 0.00 0.00 97 1015.8
20260906110039 69 22 0.0 2.0 0.00 0.00 0.00 97 1015.9
20260906105539 69 32 0.0 0.0 0.00 0.00 0.00 97 1015.8
20260906105039 69 32 0.0 0.0 0.00 0.00 0.00 97 1015.9
20260906104538 69 32 0.0 0.0 0.00 0.00 0.00 97 1015.7
20260906104039 69 32 0.0 0.0 0.00 0.00 0.00 97 1015.7
20260906103542 69 32 0.0 0.0 0.00 0.00 0.00 97 1015.7
20260906103040 69 32 0.0 0.0 0.00 0.00 0.00 97 1015.7
20260906102537 69 32 0.0 0.0 0.00 0.00 0.00 97 1015.6
20260906102036 69 32 0.0 0.0 0.00 0.00 0.00 97 1015.6
20260906101538 69 32 0.0 0.0 0.00 0.00 0.00 97 1015.6
20260906101035 69 32 0.0 0.0 0.00 0.00 0.00 97 1015.4
20260906100634 69 32 0.0 0.0 0.00 0.00 0.00 97 1015.4
20260906100038 69 32 0.0 0.0 0.00 0.00 0.00 97 1015.4
20260906095537 69 32 0.0 0.0 0.00 0.00 0.00 97 1015.4
20260906095037 69 32 0.0 0.0 0.00 0.00 0.00 97 1015.3
20260906094543 69 32 0.0 0.0 0.00 0.00 0.00 97 1015.1
20260906094036 69 32 0.0 0.0 0.00 0.00 0.00 97 1015.1
20260906093536 69 32 0.0 0.0 0.00 0.00 0.00 97 1015.1
20260906093037 70 32 0.0 0.0 0.00 0.00 0.00 97 1015.1
20260906092535 70 32 0.0 0.0 0.00 0.00 0.00 97 1015.1
20260906092036 70 32 0.0 0.0 0.00 0.00 0.00 97 1015.0
20260906091536 70 32 0.0 0.0 0.00 0.00 0.00 97 1015.0
20260906091037 70 32 0.0 0.0 0.00 0.00 0.00 97 1015.0
20260906090634 70 32 0.0 0.0 0.00 0.00 0.00 97 1015.0
20260906090047 70 32 0.0 0.0 0.00 0.00 0.00 97 1015.0
20260906085538 70 32 0.0 0.0 0.00 0.00 0.00 96 1014.9
20260906085039 70 32 0.0 0.0 0.00 0.00 0.00 96 1015.0
20260906084535 70 32 0.0 0.0 0.00 0.00 0.00 96 1014.9
20260906084036 70 32 0.0 0.0 0.00 0.00 0.00 96 1014.8
20260906083537 70 32 0.0 0.0 0.00 0.00 0.00 96 1014.8
20260906083037 70 32 0.0 0.0 0.00 0.00 0.00 96 1014.9
20260906082536 70 32 0.0 0.0 0.00 0.00 0.00 96 1014.9
20260906082032 70 32 0.0 0.0 0.00 0.00 0.00 96 1014.9
20260906081532 70 32 0.0 0.0 0.00 0.00 0.00 96 1014.8
20260906081035 70 32 0.0 0.0 0.00 0.00 0.00 96 1014.8
20260906080631 70 32 0.0 0.0 0.00 0.00 0.00 96 1014.8
20260906080056 70 32 0.0 0.0 0.00 0.00 0.00 96 1014.8
20260906075555 70 32 0.0 0.0 0.00 0.00 0.00 96 1014.8
20260906075055 70 32 0.0 0.0 0.00 0.00 0.00 96 1014.9
20260906074554 70 32 0.0 0.0 0.00 0.00 0.00 96 1015.0
20260906074054 71 32 0.0 0.0 0.00 0.00 0.00 96 1015.0
20260906073557 71 32 0.0 0.0 0.00 0.00 0.00 96 1015.1
20260906073052 71 32 0.0 0.0 0.00 0.00 0.00 96 1015.2
20260906072552 71 32 0.0 0.0 0.00 0.00 0.00 96 1015.1
20260906072051 71 32 0.0 0.0 0.00 0.00 0.00 96 1015.2
20260906071551 71 32 0.0 0.0 0.00 0.00 0.00 96 1015.2
20260906071052 71 32 0.0 0.0 0.00 0.00 0.00 96 1015.3
20260906070650 71 32 0.0 0.0 0.00 0.00 0.00 96 1015.2
20260906070053 71 32 0.0 0.0 0.00 0.00 0.00 96 1015.2
20260906065552 71 32 0.0 0.0 0.00 0.00 0.00 95 1015.2
20260906065052 71 32 0.0 0.0 0.00 0.00 0.00 95 1015.2
20260906064552 71 32 0.0 0.0 0.00 0.00 0.00 95 1015.3
20260906064051 72 32 0.0 0.0 0.00 0.00 0.00 95 1015.4
20260906063550 72 32 0.0 0.0 0.00 0.00 0.00 95 1015.3
20260906063050 72 32 0.0 2.0 0.00 0.00 0.00 96 1015.3
20260906062549 72 32 0.0 2.0 0.00 0.00 0.00 95 1015.5
20260906062050 72 193 0.0 0.0 0.00 0.00 0.00 95 1015.4
20260906061551 72 193 0.0 0.0 0.00 0.00 0.00 95 1015.4
20260906061048 72 193 0.0 0.0 0.00 0.00 0.00 95 1015.4
20260906060648 72 193 0.0 1.0 0.00 0.00 0.00 95 1015.4
20260906060118 72 193 0.0 2.0 0.00 0.00 0.00 95 1015.5
20260906055552 72 193 0.0 2.0 0.00 0.00 0.00 95 1015.5
20260906055052 72 193 0.0 4.0 0.00 0.00 0.00 95 1015.6
20260906054605 72 193 1.0 4.0 0.00 0.00 0.00 95 1015.5
20260906054051 72 338 0.0 3.0 0.00 0.00 0.00 95 1015.4
20260906053550 72 200 1.0 3.0 0.00 0.00 0.00 95 1015.4
20260906053050 72 188 0.0 2.0 0.00 0.00 0.00 95 1015.3
20260906052551 72 188 0.0 2.0 0.00 0.00 0.00 95 1015.3
20260906052050 72 188 0.0 0.0 0.00 0.00 0.00 95 1015.3
20260906051549 72 188 0.0 0.0 0.00 0.00 0.00 95 1015.2
20260906051050 73 188 0.0 0.0 0.00 0.00 0.00 95 1015.3
20260906050649 73 188 0.0 0.0 0.00 0.00 0.00 95 1015.2
20260906050040 73 188 0.0 0.0 0.00 0.00 0.00 95 1015.3
20260906045543 73 188 0.0 0.0 0.00 0.00 0.00 95 1015.2
20260906045040 73 188 0.0 0.0 0.00 0.00 0.00 95 1015.1
20260906044540 73 188 0.0 0.0 0.00 0.00 0.00 94 1015.0
20260906044039 73 188 0.0 0.0 0.00 0.00 0.00 94 1015.1
20260906043539 73 188 0.0 0.0 0.00 0.00 0.00 94 1015.1
20260906043040 73 188 0.0 0.0 0.00 0.00 0.00 94 1015.2
20260906042539 73 188 0.0 0.0 0.00 0.00 0.00 94 1015.2
20260906042039 73 188 0.0 0.0 0.00 0.00 0.00 94 1015.2
20260906041539 73 188 0.0 0.0 0.00 0.00 0.00 94 1015.2
20260906041040 73 188 0.0 0.0 0.00 0.00 0.00 93 1015.2
20260906040639 73 188 0.0 0.0 0.00 0.00 0.00 93 1015.1
20260906040100 74 188 0.0 0.0 0.00 0.00 0.00 93 1015.0
20260906035600 74 188 0.0 0.0 0.00 0.00 0.00 93 1015.1
20260906035100 74 188 0.0 0.0 0.00 0.00 0.00 93 1015.0
20260906034606 74 188 0.0 0.0 0.00 0.00 0.00 93 1015.1
20260906034059 74 188 0.0 0.0 0.00 0.00 0.00 92 1015.0
20260906033559 74 188 0.0 0.0 0.00 0.00 0.00 92 1015.0
20260906033100 74 188 0.0 0.0 0.00 0.00 0.00 92 1015.1
20260906032559 74 188 0.0 0.0 0.00 0.00 0.00 92 1015.0
20260906032100 75 188 0.0 0.0 0.00 0.00 0.00 91 1015.0
20260906031600 75 188 0.0 2.0 0.00 0.00 0.00 91 1014.8
20260906031059 75 188 0.0 2.0 0.00 0.00 0.00 91 1015.0
20260906030700 75 188 0.0 1.0 0.00 0.00 0.00 91 1015.1
20260906030054 75 188 0.0 0.0 0.00 0.00 0.00 91 1015.0
20260906025552 75 188 0.0 0.0 0.00 0.00 0.00 91 1015.0
20260906025054 75 188 0.0 0.0 0.00 0.00 0.00 90 1015.0
20260906024555 75 188 0.0 0.0 0.00 0.00 0.00 90 1014.9
20260906024052 76 188 0.0 0.0 0.00 0.00 0.00 89 1014.9
20260906023552 76 188 0.0 0.0 0.00 0.00 0.00 89 1014.9
20260906023052 76 188 0.0 0.0 0.00 0.00 0.00 89 1014.7
20260906022551 76 188 0.0 0.0 0.00 0.00 0.00 88 1014.6
20260906022052 77 188 0.0 0.0 0.00 0.00 0.00 87 1014.6
20260906021558 77 188 0.0 0.0 0.00 0.00 0.00 88 1014.5
20260906021052 77 188 0.0 0.0 0.00 0.00 0.00 87 1014.5
20260906020651 77 188 0.0 0.0 0.00 0.00 0.00 87 1014.4
20260906020051 77 188 0.0 0.0 0.00 0.00 0.00 86 1014.3
20260906015550 77 188 0.0 0.0 0.00 0.00 0.00 86 1014.3
20260906015050 78 188 0.0 3.0 0.00 0.00 0.00 86 1014.2
20260906014552 78 188 0.0 3.0 0.00 0.00 0.00 86 1014.2
20260906014051 78 113 0.0 1.0 0.00 0.00 0.00 86 1014.0
20260906013550 78 113 0.0 0.0 0.00 0.00 0.00 85 1013.7
20260906013050 78 113 0.0 0.0 0.00 0.00 0.00 84 1013.7
20260906012549 79 113 0.0 0.0 0.00 0.00 0.00 84 1013.5
20260906012049 79 113 0.0 0.0 0.00 0.00 0.00 82 1013.5
20260906011550 79 113 0.0 0.0 0.00 0.00 0.00 83 1013.4
20260906011048 80 113 0.0 0.0 0.00 0.00 0.00 82 1013.4
20260906010649 80 113 0.0 0.0 0.00 0.00 0.00 81 1013.4
20260906010111 81 113 0.0 0.0 0.00 0.00 0.00 80 1013.2
20260906005546 81 113 0.0 0.0 0.00 0.00 0.00 79 1013.3
20260906005049 81 113 0.0 0.0 0.00 0.00 0.00 79 1013.2
20260906004559 82 113 0.0 0.0 0.00 0.00 0.00 78 1013.2
20260906004046 82 113 0.0 0.0 0.00 0.00 0.00 78 1013.2
20260906003546 83 113 0.0 0.0 0.00 0.00 0.00 78 1013.2
20260906003046 84 113 0.0 0.0 0.00 0.00 0.00 77 1013.2
20260906002546 84 113 0.0 0.0 0.00 0.00 0.00 75 1013.2
20260906002046 85 113 0.0 0.0 0.00 0.00 0.00 75 1013.3
20260906001559 85 113 0.0 0.0 0.00 0.00 0.00 73 1013.4
20260906001045 86 113 0.0 0.0 0.00 0.00 0.00 71 1013.4
20260906000646 86 113 0.0 1.0 0.00 0.00 0.00 71 1013.4
20260906000059 86 113 0.0 1.0 0.00 0.00 0.00 70 1013.5
20260905235559 87 98 0.0 1.0 0.00 0.00 0.00 68 1013.5
20260905235058 87 97 0.0 1.0 0.00 0.00 0.00 69 1013.7
20260905234557 87 92 0.0 2.0 0.00 0.00 0.00 71 1013.6
20260905234057 88 92 0.0 2.0 0.00 0.00 0.00 69 1013.6
20260905233558 88 121 0.0 1.0 0.00 0.00 0.00 67 1013.7
20260905233058 88 113 0.0 2.0 0.00 0.00 0.00 68 1013.7
20260905232557 89 125 0.0 2.0 0.00 0.00 0.00 68 1013.7
20260905232057 88 165 0.0 3.0 0.00 0.00 0.00 67 1013.6
20260905231559 88 135 1.0 3.0 0.00 0.00 0.00 69 1013.6
20260905231057 88 143 0.0 2.0 0.00 0.00 0.00 69 1013.7
20260905230656 88 109 0.0 2.0 0.00 0.00 0.00 67 1013.6
20260905230052 88 128 0.0 1.0 0.00 0.00 0.00 69 1013.4
20260905225551 88 128 0.0 1.0 0.00 0.00 0.00 67 1013.5
20260905225051 88 128 0.0 1.0 0.00 0.00 0.00 67 1013.4
20260905224552 89 128 0.0 1.0 0.00 0.00 0.00 68 1013.5
20260905224054 89 143 0.0 1.0 0.00 0.00 0.00 66 1013.5
20260905223551 88 141 0.0 2.0 0.00 0.00 0.00 66 1013.4
20260905223055 89 144 0.0 2.0 0.00 0.00 0.00 64 1013.5
20260905222551 89 132 0.0 2.0 0.00 0.00 0.00 63 1013.5